Flag for U.S.A. Weather past 2 weeks in Warminster Township, Pennsylvania, U.S.A.

Now
69 °F

Passing clouds.


Feels Like: 69 °F
Forecast: 50 / 74 °F
Wind: 3 mph from North

Location: Doylestown Airport

Current Time: Sep 18, 2014 at 7:57:37 PM

Latest Report: Sep 18, 2014 at 6:54 PM


Visibility: 10 mi

Pressure: 30.00 "Hg

Humidity: 45%

Dew point: 47 °F

Location of Warminster TownshipLocation

Historic Weather in Warminster Township — Graph

°F

Warminster Township temperature yesterday

Maximum temperature yesterday: 72 °F (at 2:54 PM)
Minimum temperature yesterday: 48 °F (at 4:54 AM)
Average temperature yesterday: 59 °F

Past Weeks' High & Low Weather Summary

 TemperatureHumidityPressure
High91 °F (Sep 6, 1:54 PM)100% (Sep 4, 4:54 AM)30.30 "Hg (Sep 4, 4:54 AM)
Low47 °F (Sep 15, 6:54 AM)38% (Sep 7, 3:54 PM)29.83 "Hg (Sep 11, 3:54 PM)
Average65 °F74%30.09 "Hg
* Reported Sep 3 5:54 PM — Sep 18 5:54 PM, Warminster Township, Weather by CustomWeather, © 2014

Note: Actual official high and low records may vary slightly from our data, if they occured in-between our weather recording intervals... More about our weather records

Advertising

Warminster Township weather history for previous 24 hours

 ConditionsComfort  
Time TempWeatherWind HumidityBarometerVisibility
5:54 PM
Sep 18
73 °FPartly sunny.N/A38%30.00 "Hg10 mi
4:54 PM73 °FScattered clouds.5 mph40%29.99 "Hg10 mi
3:54 PM72 °FBroken clouds.6 mph43%29.99 "Hg10 mi
2:54 PM72 °FPartly sunny.7 mph44%29.98 "Hg10 mi
1:54 PM72 °FScattered clouds.6 mph46%29.98 "Hg10 mi
12:54 PM69 °FScattered clouds.No wind49%30.00 "Hg10 mi
11:54 AM69 °FScattered clouds.5 mph53%30.01 "Hg10 mi
10:54 AM69 °FPartly sunny.5 mph55%30.02 "Hg10 mi
9:54 AM65 °FOvercast.No wind66%30.01 "Hg10 mi
8:54 AM58 °FPartly sunny.No wind87%30.01 "Hg10 mi
7:54 AM51 °FPartly sunny.No wind100%30.01 "Hg10 mi
6:54 AM47 °FOvercast.No wind100%30.00 "Hg10 mi
5:54 AM47 °FClear.No wind100%29.98 "Hg10 mi
4:54 AM47 °FClear.No wind100%29.97 "Hg10 mi
3:54 AM48 °FClear.No wind96%29.96 "Hg10 mi
2:54 AM50 °FClear.No wind96%29.96 "Hg10 mi
1:54 AM50 °FClear.No wind96%29.97 "Hg10 mi
12:54 AM50 °FClear.No wind100%29.97 "Hg10 mi
11:54 PM
Sep 17
51 °FClear.No wind96%29.98 "Hg10 mi
10:54 PM52 °FClear.No wind89%29.98 "Hg10 mi
9:54 PM54 °FClear.No wind86%29.98 "Hg10 mi
8:54 PM57 °FClear.No wind78%29.98 "Hg10 mi
7:54 PM59 °FSunny.No wind75%29.98 "Hg10 mi
Weather by CustomWeather, © 2014

See weather overviewHow to use our weather pages